Flag for Canada Weather past 2 weeks in Rouyn-Noranda, Quebec, Canada

Now
0 °F

Light snow. Passing clouds.


Feels Like: -17 °F
Forecast: -13 / -2 °F
Wind: 10 mph from Northwest

Location: Rouyn Airport

Current Time: Jan 24, 2015 at 11:31:36 PM

Latest Report: Jan 24, 2015 at 10:00 PM


Visibility: 10 mi

Pressure: 29.65 "Hg

Humidity: 78%

Dew point: -6 °F

Location of Rouyn-NorandaLocation

Historic Weather in Rouyn-Noranda — Graph

°F

Rouyn-Noranda temperature yesterday

Maximum temperature yesterday: 28 °F (at 7:00 PM)
Minimum temperature yesterday: 10 °F (at 12:00 AM)
Average temperature yesterday: 23 °F

Past Weeks' High & Low Weather Summary

 TemperatureHumidityPressure
High30 °F (Jan 24, 4:00 AM)100% (Jan 15, 9:47 AM)30.73 "Hg (Jan 15, 9:47 AM)
Low-29 °F (Jan 17, 2:00 AM)58% (Jan 16, 11:00 AM)29.37 "Hg (Jan 24, 10:50 AM)
Average3 °F82%30.04 "Hg
* Reported Jan 9 9:00 PM — Jan 24 9:00 PM, Rouyn-Noranda, Weather by CustomWeather, © 2014

Note: Actual official high and low records may vary slightly from our data, if they occured in-between our weather recording intervals... More about our weather records

Advertising

Rouyn-Noranda weather history for previous 24 hours

 ConditionsComfort  
Time TempWeatherWind HumidityBarometerVisibility
9:00 PM
Jan 24
0 °FLight snow. Overcast.10 mph78%29.64 "Hg12 mi
8:00 PM1 °FLight snow. Overcast.13 mph78%29.62 "Hg6 mi
7:00 PM3 °FSnow flurries. Passing clouds.18 mph72%29.59 "Hg10 mi
6:00 PM7 °FSnow flurries. Passing clouds.13 mph72%29.55 "Hg5 mi
5:00 PM7 °FPartly sunny.14 mph78%29.51 "Hg8 mi
4:00 PM9 °FLight snow. Partly sunny.15 mph78%29.47 "Hg8 mi
3:48 PM10 °FLight snow. Partly sunny.13 mph79%29.46 "Hg3 mi
3:00 PM14 °FLight snow. Mostly cloudy.15 mph85%29.44 "Hg3 mi
2:00 PM16 °FLight snow. Overcast.12 mph86%29.41 "Hg3 mi
1:00 PM19 °FLight snow. Low clouds.14 mph86%29.40 "Hg3 mi
12:00 PM25 °FLight snow. Mostly cloudy.14 mph86%29.39 "Hg3 mi
11:51 AM27 °FLight snow. Low clouds.15 mph86%29.38 "Hg2 mi
11:00 AM30 °FLight snow. Low clouds.10 mph93%29.37 "Hg3 mi
10:50 AM30 °FLight snow. Low clouds.13 mph93%29.37 "Hg3 mi
10:04 AM30 °FLight snow. Low clouds.12 mph93%29.38 "Hg1 mi
10:00 AM30 °FLight snow. Low clouds.12 mph93%29.38 "Hg2 mi
9:49 AM30 °FLight snow. Low clouds.12 mph93%29.39 "Hg2 mi
9:00 AM28 °FLight snow. Low clouds.10 mph100%29.39 "Hg3 mi
8:55 AM28 °FLight snow. Low clouds.10 mph100%29.40 "Hg3 mi
8:00 AM28 °FLight snow. Low clouds.9 mph100%29.41 "Hg3 mi
7:00 AM28 °FLight snow. Low clouds.10 mph100%29.42 "Hg3 mi
6:00 AM28 °FLight mixture of precip. Low clouds.8 mph100%29.44 "Hg6 mi
5:00 AM28 °FLight mixture of precip. Low clouds.9 mph100%29.46 "Hg3 mi
4:55 AM28 °FLight mixture of precip. Low clouds.10 mph100%29.46 "Hg3 mi
4:00 AM30 °FLight freezing rain. Ice fog.9 mph93%29.48 "Hg3 mi
3:00 AM28 °FLight freezing rain. Low clouds.10 mph100%29.49 "Hg3 mi
2:00 AM28 °FLight freezing rain. Low clouds.10 mph100%29.49 "Hg3 mi
1:00 AM28 °FLight freezing rain. Low clouds.13 mph100%29.52 "Hg3 mi
12:00 AM28 °FLight freezing rain. Low clouds.14 mph100%29.54 "Hg4 mi
11:50 PM
Jan 23
28 °FLight freezing rain. Low clouds.13 mph100%29.55 "Hg3 mi
11:00 PM28 °FLight freezing rain. Low clouds.15 mph100%29.56 "Hg2 mi
Weather by CustomWeather, © 2014

See weather overviewHow to use our weather pages